Location: Northern Prairie Star Party
(53.2167°N, 112.5333°W)
Time: 16:41:17
(UTC-06:00)

Daily predictions for brighter satellites

Satellite Brightness Start Highest point End
(mag) Time Altitude Azimuth Time Altitude Azimuth Time Altitude Azimuth
Envisat 4.3 21:18:30 10° S 21:23:19 43° W 21:28:11 10° NNW
Cosmos 1328 Rocket 3.7 21:19:46 10° SSW 21:24:12 85° W 21:28:41 10° N
Cosmos 1862 3.9 21:24:13 10° N 21:28:05 42° ENE 21:31:55 10° SE
USA 234 3.7 21:21:53 10° E 21:28:22 65° N 21:34:51 10° W
H-2A R/B 2.6 21:24:49 10° SE 21:29:26 39° ENE 21:34:00 10° N
Cosmos 1408 3.1 21:26:10 10° NNW 21:29:49 63° W 21:33:27 10° S
Cosmos 2228 Rocket 3.0 21:25:43 10° S 21:30:06 80° E 21:34:34 10° NNE
Cosmos 1943 Rocket 3.5 21:29:48 10° NNW 21:34:32 28° NE 21:39:17 10° E
CZ-4C R/B 3.8 21:32:37 10° SE 21:35:15 14° ESE 21:38:03 10° ENE
RESURS DK-1 3.9 21:34:34 10° NNW 21:38:04 25° NE 21:41:31 10° E
Meteor 2-10 Rocket 4.0 21:32:40 10° S 21:38:15 51° E 21:43:52 10° NNE
ARGOS 3.3 21:34:05 10° SE 21:39:20 59° ENE 21:44:37 10° N
Cosmos 2056 Rocket 3.8 21:35:15 10° S 21:40:25 48° ESE 21:45:35 10° NE
Cosmos 1140 Rocket 3.6 21:37:59 10° NNW 21:43:11 69° ENE 21:48:19 10° SE
USA 245 3.8 21:42:21 12° ESE 21:43:46 18° ENE 21:45:24 10° NNE
SAR-Lupe-3 4.5 21:43:57 10° NNE 21:47:33 77° ESE 21:51:08 10° S
NOSS 2-1 (C) 4.5 21:45:37 10° WSW 21:49:20 50° NNW 21:53:55 10° NE
Cosmos 405 3.1 21:45:50 10° NNW 21:49:22 79° WSW 21:52:52 10° S
SL-16 R/B 2.6 21:44:18 10° S 21:49:34 41° ESE 21:54:51 10° NE
Cosmos 1190 Rocket 4.5 21:46:36 10° NNW 21:51:50 61° WSW 21:57:00 10° S
Cosmos 1624 Rocket 4.0 21:51:34 10° S 21:56:42 65° ESE 22:01:52 10° NNE
NOSS 0 Rocket 4.1 21:52:12 10° SW 21:58:24 80° NW 22:04:40 10° NNE
Resurs 01 Rocket 3.2 21:54:20 10° SSW 21:58:25 36° W 22:02:33 10° NNW
Cosmos 1151 Rocket 3.7 21:55:31 10° SSW 21:59:43 57° WNW 22:03:59 10° N
Cosmos 2098 Rocket 2.5 21:56:30 10° S 22:00:31 82° E 22:03:49 10° NNE
Cosmos 1741 Rocket 4.5 21:56:58 10° NNW 22:02:12 51° ENE 22:06:32 15° SE
Cosmos 1954 Rocket 4.0 21:57:57 10° NNW 22:03:12 86° WSW 22:08:09 11° SSE
Thor Agena Rocket 4.4 21:59:31 10° N 22:04:38 55° WNW 22:09:46 10° SW
SL-8 R/B 4.2 22:04:37 10° SW 22:09:07 41° SSE 22:13:23 11° E
Cosmos 1727 Rocket 4.2 22:04:16 10° NNW 22:10:27 72° W 22:16:35 10° S
Cosmos 1980 4.2 22:08:45 10° SW 22:14:25 67° NW 22:20:06 10° NNE
Cosmos 1461 4.1 22:11:19 10° NW 22:15:53 40° NNE 22:19:46 13° E
MetOp-A 4.3 22:11:12 10° SSE 22:16:34 77° WSW 22:21:58 10° NNW
Cosmos 1869 4.0 22:12:57 10° SSW 22:16:55 56° WNW 22:20:54 10° N
Cosmos 1441 Rocket 3.1 22:13:17 10° S 22:17:00 71° E 22:20:47 10° NNE
Cosmos 1821 Rocket 4.4 22:11:03 10° SSE 22:17:02 46° E 22:22:59 10° NNE
Helios 1A 3.1 22:13:51 16° SSE 22:17:02 61° ENE 22:21:12 10° N
GENESIS II 4.2 22:14:06 10° NW 22:18:06 86° NE 22:20:44 20° SE
Cosmos 2369 Rocket 2.5 22:12:30 10° NNW 22:18:09 57° NE 22:22:24 17° SE
Terra 2.8 22:18:59 17° ESE 22:22:03 34° ENE 22:26:20 10° N
Cosmos 614 Rocket 4.3 22:17:31 10° NNW 22:22:42 63° WSW 22:27:21 13° S
Cosmos 1707 Rocket 3.5 22:19:23 10° S 22:23:39 63° E 22:27:57 10° NNE
Cosmos 1933 3.5 22:21:29 14° S 22:24:49 52° E 22:28:50 10° NNE
ATLAS CENTAUR R/B 2.8 22:22:52 10° WSW 22:26:27 39° NW 22:30:17 10° NE
Cosmos 1869 Rocket 4.2 22:22:23 10° NNW 22:26:40 54° W 22:30:54 10° S
Cosmos 1633 3.3 22:23:56 10° N 22:27:18 36° ENE 22:28:53 23° ESE
Cosmos 2123 Rocket 4.3 22:22:47 10° N 22:29:00 56° ENE 22:33:32 19° SE
Cosmos 2333 Rocket 3.8 22:27:30 10° WSW 22:32:47 39° NW 22:38:05 10° NNE
USA 267 4.4 22:28:49 10° E 22:33:09 18° SE 22:33:29 18° SE
Cosmos 2344 3.9 22:26:15 10° S 22:33:25 47° ESE 22:41:34 10° NE
Lacrosse 4 Rocket 4.4 22:32:24 10° NNW 22:34:08 12° N 22:35:53 10° NNE
ERS-1 Rocket 3.1 22:29:53 14° S 22:34:18 75° WSW 22:39:22 10° NNW
Cosmos 2219 Rocket 4.0 22:29:25 10° WSW 22:34:33 35° NW 22:39:43 10° NNE
Meteor 1-4 Rocket 3.0 22:31:35 10° N 22:34:57 42° ENE 22:36:22 27° SE
Cosmos 1733 Rocket 3.1 22:30:36 10° N 22:34:59 64° ENE 22:37:39 23° SSE
IGS 5A 4.1 22:33:00 22° SE 22:35:14 42° ENE 22:39:12 10° N
ATLAS 5 CENTAUR R/B 2.3 22:30:13 10° NW 22:35:53 84° NE 22:40:22 21° SE
SL-08 RB Rocket 4.0 22:31:59 13° S 22:35:57 63° WSW 22:40:25 10° NNW
Cosmos 1782 4.4 22:35:26 18° E 22:36:05 18° E 22:38:51 10° NE
BREEZE-M DEB (TANK) 2.3 22:35:07 10° WSW 22:37:12 38° S 22:37:28 36° SSE
Cosmos 1420 Rocket 4.2 22:35:39 10° S 22:40:47 52° ESE 22:45:59 10° NNE
Meteor 1-14 Rocket 4.2 22:35:25 10° N 22:40:57 66° ENE 22:44:35 22° SSE
Cosmos 2237 Rocket 3.2 22:35:33 10° SW 22:41:01 49° NW 22:46:32 10° NNE
CARTOSAT-1 4.0 22:39:06 24° SE 22:41:24 49° ENE 22:45:35 10° N
Cosmos 389 Rocket 3.9 22:41:28 10° N 22:44:21 24° ENE 22:45:19 21° E
BREEZE-M DEB (TANK) 2.2 22:42:29 10° W 22:46:51 39° SSW 22:47:22 35° SSE
GEOS 3 Rocket 4.5 22:42:29 10° ENE 22:47:08 29° ESE 22:49:10 23° SSE
SL-24 R/B 4.5 22:46:15 21° SSE 22:49:46 71° E 22:54:41 10° N
Cosmos 405 Rocket 3.4 22:46:54 10° SSW 22:50:45 57° WNW 22:54:42 10° N
Lacrosse 5 2.0 22:46:18 10° WNW 22:51:19 61° SW 22:53:59 27° SE
Meteor 1-25 Rocket 4.2 22:49:05 10° NNW 22:54:53 79° ENE 22:58:26 24° SSE
Sich 1 Rocket 4.5 22:50:37 10° N 22:54:55 37° ENE 22:56:47 26° ESE
SPOT 5 2.8 22:54:00 22° S 22:56:52 72° WSW 23:01:15 10° NNW
Cosmos 1437 Rocket 3.0 22:53:26 10° NNW 22:57:17 65° W 22:59:26 25° S
YAOGAN 11 4.3 22:55:21 29° SE 22:57:18 56° ENE 23:01:34 10° N
CZ-2C R/B 3.5 22:55:36 26° ESE 22:57:55 44° ENE 23:02:35 10° N
DMSP B5D2-2 4.0 22:55:16 10° NNE 23:00:32 68° ESE 23:04:20 19° S
SPOT 1/Viking Rocket 3.7 22:57:25 21° S 23:00:57 74° WSW 23:06:13 10° NNW
Okean 2 Rocket 4.5 23:01:55 10° N 23:05:37 25° ENE 23:07:05 21° E
Meteor 1-26 Rocket 4.1 23:03:34 19° S 23:07:32 74° E 23:13:09 10° NNE
Cosmos 1605 Rocket 4.2 23:03:52 24° SSE 23:07:34 55° E 23:13:49 10° NNE
H-2A R/B 3.2 23:04:33 11° SSW 23:08:54 37° W 23:13:30 10° NNW
SL-19 R/B 4.5 23:07:33 23° S 23:11:08 69° WSW 23:16:50 10° NNW
USA 234 3.3 23:05:47 16° ESE 23:11:13 82° NNE 23:17:48 10° WNW
Meteor 1-20 Rocket 4.1 23:07:39 10° NNW 23:13:09 83° W 23:16:15 27° S
Helios 1B rocket 2.3 23:11:34 10° NNE 23:15:44 79° ESE 23:17:39 31° S
RESURS DK-1 2.6 23:12:20 10° NW 23:16:28 63° WSW 23:17:54 38° S
SAR-Lupe-4 4.1 23:15:52 38° ESE 23:16:34 43° ENE 23:20:00 10° N
Cosmos 1943 Rocket 2.1 23:13:22 10° NNW 23:18:55 81° WSW 23:21:35 32° SSE
Cosmos 2242 Rocket 3.5 23:17:36 27° S 23:19:57 89° W 23:24:25 10° N
Cosmos 1656 Rocket 4.1 23:14:52 10° NNW 23:20:30 55° NE 23:23:23 28° ESE
CZ-4C R/B 2.2 23:17:05 10° SSW 23:22:22 65° SE 23:28:34 10° NE
SeaSat 1 4.2 23:19:00 11° E 23:22:40 24° NE 23:26:37 10° NNW
Cosmos 1452 Rocket 3.8 23:17:44 10° SW 23:22:58 70° WNW 23:28:14 10° NNE
Cosmos 1934 Rocket 4.0 23:25:38 18° SSW 23:30:15 80° W 23:36:22 10° N
Cosmos 1703 Rocket 3.9 23:30:07 41° ESE 23:30:48 44° E 23:34:57 10° NNE
Cosmos 1908 Rocket 3.5 23:26:57 10° NNW 23:31:25 83° W 23:32:57 41° S
ASTRO F (AKARI) 4.2 23:28:15 10° NNE 23:31:38 69° ESE 23:31:43 68° ESE
SL-16 R/B 3.2 23:28:13 10° WSW 23:33:40 47° NW 23:39:10 10° NNE
H-2A R/B 3.8 23:35:08 20° E 23:36:46 24° ENE 23:40:24 10° N
Cosmos 921 Rocket 2.9 23:35:25 33° SSW 23:37:19 90° SW 23:41:38 10° NNE
Cosmos 1862 Rocket 3.9 23:38:10 27° SSW 23:40:28 64° WNW 23:44:51 10° N
Cosmos 2221 Rocket 4.4 23:40:33 35° ESE 23:41:02 36° E 23:45:13 10° NNE
Cosmos 1606 2.9 23:48:29 47° SSW 23:49:30 72° WNW 23:53:26 10° N
SL-8 R/B 3.9 23:46:37 10° W 23:51:13 47° S 23:51:21 47° S
Gblst 52 Del rocket 4.2 23:47:43 10° SW 23:52:59 49° SSE 23:58:24 10° E
Cosmos 1461 3.5 23:50:34 10° NW 23:55:14 53° SW 23:56:11 45° SSW
